Flag for Liechtenstein Weather past 2 weeks in Vaduz, Liechtenstein

Now
40 °F

Quite cool.


Feels Like: 37 °F
Forecast: 39 / 49 °F
Wind: 5 mph from South

Location: Vaduz

Current Time: Dec 17, 2014 at 11:02:14 PM

Latest Report: Dec 17, 2014 at 10:00 PM


Visibility: N/A

Pressure: 30.07 "Hg

Humidity: 90%

Dew point: 38 °F

Location of VaduzLocation

Historic Weather in Vaduz — Graph

°F

Vaduz temperature yesterday

Maximum temperature yesterday: 45 °F (at 1:00 PM)
Minimum temperature yesterday: 40 °F (at 12:00 AM)
Average temperature yesterday: 43 °F

Past Weeks' High & Low Weather Summary

 TemperatureHumidityPressure
High59 °F (Dec 13, 2:00 PM)98% (Dec 3, 5:00 AM)30.49 "Hg (Dec 3, 5:00 AM)
Low29 °F (Dec 10, 7:00 AM)27% (Dec 12, 11:00 PM)29.83 "Hg (Dec 12, 11:00 PM)
Average41 °F78%30.09 "Hg
* Reported Dec 2 9:00 PM — Dec 17 9:00 PM, Vaduz, Weather by CustomWeather, © 2014

Note: Actual official high and low records may vary slightly from our data, if they occured in-between our weather recording intervals... More about our weather records

Advertising

Vaduz weather history for previous 24 hours

 ConditionsComfort  
Time TempWeatherWind HumidityBarometerVisibility
9:00 PM
Dec 17
40 °FQuite cool.6 mph90%30.05 "HgN/A
8:00 PM41 °FQuite cool.6 mph90%30.03 "HgN/A
7:00 PM42 °FRain. Low clouds.6 mph83%30.00 "Hg3 mi
6:00 PM42 °FQuite cool.3 mph84%29.97 "HgN/A
5:00 PM43 °FQuite cool.1 mph78%29.94 "HgN/A
4:00 PM45 °FFog.7 mph68%29.91 "Hg3 mi
3:00 PM46 °FCool.6 mph67%29.90 "HgN/A
2:00 PM46 °FCool.2 mph64%29.89 "HgN/A
1:00 PM46 °FOvercast.7 mph68%29.91 "Hg4 mi
12:00 PM45 °FQuite cool.3 mph69%29.96 "HgN/A
11:00 AM44 °FQuite cool.5 mph74%30.00 "HgN/A
10:00 AM43 °FOvercast.6 mph81%30.01 "Hg3 mi
9:00 AM41 °FQuite cool.5 mph89%30.04 "HgN/A
8:00 AM39 °FChilly.2 mph96%30.05 "HgN/A
7:00 AM40 °FOvercast.1 mph95%30.05 "Hg1 mi
6:00 AM40 °FChilly.1 mph95%30.05 "HgN/A
5:00 AM40 °FQuite cool.1 mph95%30.04 "HgN/A
4:00 AM40 °FRain. Low clouds.1 mph94%30.04 "Hg5 mi
3:00 AM42 °FQuite cool.2 mph90%30.04 "HgN/A
2:00 AM42 °FQuite cool.1 mph92%30.04 "HgN/A
1:00 AM42 °FQuite cool.2 mph92%30.03 "HgN/A
12:00 AM42 °FQuite cool.2 mph92%30.03 "HgN/A
11:00 PM
Dec 16
42 °FQuite cool.3 mph93%30.03 "HgN/A
Weather by CustomWeather, © 2014

See weather overviewHow to use our weather pages